Tracking 29777 objects as of 4-Oct-2024
HD Live streaming from Space Station
objects crossing your sky now

EUTE 8 WEST A (AB 2)

Track EUTE 8 WEST A (AB 2) now!
EUTE 8 WEST A (AB 2) is classified as:


NORAD ID: 26927
Int'l Code: 2001-042A
Perigee: 36,261.5 km
Apogee: 36,317.6 km
Inclination: 5.0 °
Period: 1,461.5 minutes
Semi major axis: 42660 km
RCS: 14.2528 m2 (large)
Launch date: September 25, 2001
Source: European Telecommunications Satellite Organization (EUTE)
Launch site: FRENCH GUIANA (FRGUI)

European and American coverage.
Your satellite tracking list
Your tracking list is empty




NASA's NSSDC Master Catalog

Two Line Element Set (TLE):
1 26927U 01042A   24277.07805522 -.00000081  00000-0  00000-0 0  9994
2 26927   5.0102  78.0621 0006571 190.1056 333.2928  0.98528723 84029
Source of the keplerian elements: AFSPC